Seattle, WA

3:02 PM PDT on August 16, 2017 (GMT -0700)
First Hill | | Change Station

Elev 330 ft 47.61 °N, 122.32 °W | Updated 5 minutes ago

Mostly Cloudy
Mostly Cloudy
76.5 °F
Feels Like 78 °F
N
1.1
Wind Variable Wind from NE

Today
High -- | Low -- °F
--% Chance of Precip.
Yesterday
High -- | Low -- °F
Precip. -- in
Pressure 30.09 in
Visibility 10.0 miles
Clouds Scattered Clouds 9000 ft
Heat Index 78 °F
Dew Point 48 °F
Humidity 37%
Rainfall 0.00 in
Snow Depth Not available.
6:06 AM 8:19 PM
Waning Crescent, 29% visible
METAR KBFI 162153Z 36004KT 10SM SCT090 25/11 A3009 RMK AO2 SLP188 T02500111
Pressure 30.09 in
Visibility 10.0 miles
Clouds Scattered Clouds 9000 ft
Heat Index 78 °F
Dew Point 48 °F
Humidity 37%
Rainfall 0.00 in
Snow Depth Not available.
6:06 AM 8:19 PM
Waning Crescent, 29% visible
METAR KBFI 162153Z 36004KT 10SM SCT090 25/11 A3009 RMK AO2 SLP188 T02500111

Get Severe Weather Alerts

Thanks for signing up!

Be on the lookout for a verification email in your inbox.

You'll start receiving the daily forecast at 6 AM.

×

10-Day Weather Forecast

Almanac

Astronomy

Aug. 16, 2017 Rise Set
Actual Time
Civil Twilight
Nautical Twilight
Astronomical Twilight
Moon
Length of Visible Light
Length of Day
Tomorrow will be .
, % of the Moon is Illuminated

Today's Extremes

State Highs State Lows

Community

WunderPhotos

Category 6

Welcome to Category 6. This is the collective home for Weather Underground's featured writeups by Dr. Jeff Masters (right), Bob Henson (left), Chris Burt, and other regular contributors.

Nearby

Air Quality

  Air Quality AQ Index Pollutant
Not available.

Snow Depth

Station Depth Elevation

Earthquake Activity

City Distance Mag. Time & Date
Minimum magnitude displayed is 2.5.

Coastal Water Temperatures

Place Temperature

Stations

Nearby Weather Stations

Station Location Temp. Windchill Dew Point Humidity Wind Precip. Elev Updated Type
                   

Watches & Warnings

There are currently no watches in effect.